Terminal Aerodrome Forecast
Issued by NWS Shreveport, LA

Home | Current Version | Previous Version | Text Only | Print | Product List | Glossary On
Versions: 1 2 3 4 5 6 7 8 9 10 11 12 13 14 15 16 17 18
271
FTUS44 KSHV 041145
TAFLFK
TAF
KLFK 041145Z 0412/0512 34004KT 5SM BR VCSH OVC003
     FM041500 34006KT 6SM -RA OVC005
     FM042000 36007KT P6SM VCSH OVC010
     FM050000 03006KT P6SM OVC015
     FM050600 04009KT 5SM -RA BR BKN009 OVC015=

USA.gov is the U.S. government's official web portal to all federal, state and local government web resources and services.